Location: Stara Lesna
(49.1528°N, 20.2911°E)
Time: 19:02:26
(UTC+02:00)

Meteor 1-4 Rocket - Pass Details

Date: 13 July 2020
Orbit: 449 x 503 km, 81.2° (Epoch: 11 August)

Event Time Altitude Azimuth Distance (km) Brightness Sun altitude
Rises 01:07:42 0° 352° (N) 2,597 7.7 -18.9°
Reaches altitude 10° 01:09:53 10° 358° (N) 1,702 6.5 -18.8°
Maximum altitude 01:13:31 50° 74° (ENE) 635 3.2 -18.8°
Enters shadow 01:14:42 35° 127° (SE) 810 3.4 -18.7°
